EW9945 Weather Reports


time (UTC)temp
C
wind
direction
speed
KPH
gust
KPH
rain 1hr
cm
rain 24hr
cm
rain mn
cm
humidity
%
barometer
mb
20260831100007 17 300 0.0 0.0 0.00 0.00 0.00 93 1018.9
20260831094506 17 300 0.0 0.0 0.00 0.00 0.00 93 1018.9
20260831093006 17 300 0.0 0.0 0.00 0.00 0.00 93 1018.9
20260831090003 17 300 0.0 1.6 0.00 0.00 0.00 93 1019.1
20260831084502 17 300 0.0 0.0 0.00 0.00 0.00 93 1019.0
20260831083002 17 300 0.0 0.0 0.00 0.00 0.00 93 1019.0
20260831080001 17 300 0.0 0.0 0.00 0.00 0.00 92 1019.0
20260831074501 17 300 0.0 0.0 0.00 0.00 0.00 92 1019.2
20260831073115 17 300 0.0 0.0 0.00 0.00 0.00 92 1019.3
20260831071701 17 300 0.0 0.0 0.00 0.00 0.00 92 1019.3
20260831070100 17 300 0.0 0.0 0.00 0.00 0.00 92 1019.3
20260831064603 17 300 0.0 0.0 0.00 0.00 0.00 92 1019.2
20260831063101 17 300 0.0 0.0 0.00 0.00 0.00 92 1019.3
20260831061700 17 300 0.0 0.0 0.00 0.00 0.00 92 1019.3
20260831060100 17 300 0.0 0.0 0.00 0.00 0.00 92 1019.4
20260831054558 17 300 0.0 0.0 0.00 0.00 0.00 92 1019.7
20260831053058 17 300 0.0 0.0 0.00 0.00 0.00 92 1019.7
20260831051658 17 300 0.0 0.0 0.00 0.00 0.00 92 1019.9
20260831050058 17 300 0.0 0.0 0.00 0.00 0.00 91 1019.9
20260831044603 17 300 0.0 0.0 0.00 0.00 0.00 91 1020.0
20260831043057 17 300 0.0 0.0 0.00 0.00 0.00 91 1020.0
20260831041658 17 300 0.0 0.0 0.00 0.00 0.00 91 1019.9
20260831040056 17 300 0.0 0.0 0.00 0.00 0.00 91 1019.7
20260831034604 17 300 0.0 0.0 0.00 0.00 0.00 91 1019.9
20260831033056 17 300 0.0 0.0 0.00 0.00 0.00 90 1020.0
20260831031657 17 300 0.0 0.0 0.00 0.00 0.00 91 1020.0
20260831030100 17 300 0.0 0.0 0.00 0.00 0.00 90 1020.0
20260831024555 18 300 0.0 0.0 0.00 0.00 0.00 89 1020.0
20260831023054 18 300 0.0 0.0 0.00 0.00 0.00 89 1020.1
20260831021656 18 300 0.0 0.0 0.00 0.00 0.00 88 1019.9
20260831014555 18 300 0.0 0.0 0.00 0.00 0.00 87 1019.9
20260831013100 18 300 0.0 0.0 0.00 0.00 0.00 88 1019.8
20260831011654 18 300 0.0 0.0 0.00 0.00 0.00 88 1019.8
20260831010114 18 300 0.0 6.4 0.00 0.00 0.00 88 1019.5
20260831004558 19 300 0.0 1.6 0.00 0.00 0.00 89 1019.7
20260831003103 20 300 0.0 0.0 0.00 0.00 0.00 88 1019.4
20260831001652 20 300 0.0 0.0 0.00 0.00 0.00 87 1019.0
20260831000052 20 300 0.0 0.0 0.00 0.00 0.00 86 1018.7
20260830234551 20 300 0.0 0.0 0.00 0.00 0.00 86 1018.5
20260830233051 20 300 0.0 0.0 0.00 0.00 0.00 86 1018.7
20260830231652 20 300 0.0 0.0 0.00 0.00 0.00 86 1018.5
20260830230049 20 300 0.0 0.0 0.00 0.00 0.00 85 1018.5
20260830224552 20 300 0.0 0.0 0.00 0.00 0.00 87 1018.7
20260830223048 20 300 0.0 0.0 0.00 0.00 0.00 87 1018.7
20260830221650 20 300 0.0 0.0 0.00 0.00 0.00 88 1018.8
20260830220048 20 300 0.0 0.0 0.00 0.00 0.00 88 1018.6
20260830214547 20 300 0.0 0.0 0.00 0.00 0.00 87 1018.7
20260830213047 21 300 0.0 3.2 0.00 0.00 0.00 86 1018.8
20260830211648 21 300 0.0 0.0 0.00 0.00 0.00 84 1018.7
20260830210048 21 300 0.0 0.0 0.00 0.00 0.00 81 1018.6
20260830204547 22 300 0.0 0.0 0.00 0.00 0.00 77 1018.6
20260830203047 22 300 0.0 0.0 0.00 0.00 0.00 75 1018.5
20260830201649 22 300 0.0 0.0 0.00 0.00 0.00 74 1018.5
20260830200045 22 300 0.0 0.0 0.00 0.00 0.00 74 1018.5
20260830194559 22 300 0.0 0.0 0.00 0.00 0.00 74 1018.6
20260830193044 23 300 0.0 0.0 0.00 0.00 0.00 72 1018.6
20260830191644 23 300 0.0 0.0 0.00 0.00 0.00 75 1018.7
20260830190044 23 300 0.0 1.6 0.00 0.00 0.00 71 1018.8
20260830184543 23 300 0.0 0.0 0.00 0.00 0.00 69 1018.8
20260830183045 24 173 1.6 4.8 0.00 0.00 0.00 66 1018.8
20260830181644 25 161 0.0 1.6 0.00 0.00 0.00 65 1018.9
20260830180043 25 160 0.0 0.0 0.00 0.00 0.00 64 1018.9
20260830174558 25 159 0.0 0.0 0.00 0.00 0.00 66 1018.8
20260830173041 24 159 0.0 0.0 0.00 0.00 0.00 68 1019.0
20260830171637 23 165 0.0 3.2 0.00 0.00 0.00 67 1019.2
20260830170035 23 174 0.0 6.4 0.00 0.00 0.00 67 1019.4
20260830164533 23 296 4.8 14.5 0.00 0.00 0.00 65 1019.5
20260830163040 22 134 0.0 9.7 0.00 0.00 0.00 71 1019.5
20260830161628 22 138 0.0 4.8 0.00 0.00 0.00 70 1019.7
20260830160026 22 298 1.6 4.8 0.00 0.00 0.00 70 1020.0
20260830154524 21 170 0.0 9.7 0.00 0.00 0.00 72 1020.1
20260830153032 21 166 0.0 8.0 0.00 0.00 0.00 72 1020.1
20260830151624 21 137 0.0 9.7 0.00 0.00 0.00 69 1020.2
20260830150022 21 146 1.6 8.0 0.00 0.00 0.00 70 1020.2
20260830144523 21 115 0.0 3.2 0.00 0.00 0.00 71 1020.1
20260830143021 20 149 0.0 8.0 0.00 0.00 0.00 71 1020.0
20260830141621 20 119 0.0 4.8 0.00 0.00 0.00 72 1020.1
20260830140018 19 120 0.0 1.6 0.00 0.00 0.00 73 1019.9
20260830134520 20 120 0.0 0.0 0.00 0.00 0.00 71 1019.9
20260830133022 19 119 0.0 1.6 0.00 0.00 0.00 73 1020.0
20260830131617 20 149 0.0 4.8 0.00 0.00 0.00 76 1020.3
20260830130012 17 149 0.0 0.0 0.00 0.00 0.00 84 1020.6
20260830124507 16 149 0.0 1.6 0.00 0.00 0.00 89 1020.6
20260830123004 15 149 0.0 0.0 0.00 0.00 0.00 90 1020.7
20260830121606 15 149 0.0 0.0 0.00 0.00 0.00 91 1020.7
20260830120108 14 149 0.0 0.0 0.00 0.00 0.00 91 1020.6
20260830114558 14 149 0.0 0.0 0.00 0.00 0.00 91 1020.7
20260830113057 13 149 0.0 0.0 0.00 0.00 0.00 91 1020.9
20260830111555 13 149 0.0 0.0 0.00 0.00 0.00 91 1020.8
20260830110057 13 149 0.0 0.0 0.00 0.00 0.00 91 1020.8
20260830104601 13 149 0.0 0.0 0.00 0.00 0.00 91 1020.8
20260830103053 13 149 0.0 0.0 0.00 0.00 0.00 90 1020.9
20260830101600 13 149 0.0 0.0 0.00 0.00 0.00 90 1020.8